EW8576 Weather Reports


Display with metric or nautical units.
time (UTC)temp
F
wind
direction
speed
MPH
gust
MPH
rain 1hr
in
rain 24hr
in
rain mn
in
humidity
%
barometer
mb
20260906201015 74 88 8.0 16.0 0.00 0.00 0.00 31 1013.1
20260906200515 75 88 7.0 16.0 0.00 0.00 0.00 29 1013.0
20260906200016 75 38 6.0 15.0 0.00 0.00 0.00 29 1012.9
20260906195516 75 69 6.0 12.0 0.00 0.00 0.00 28 1013.0
20260906195016 75 51 6.0 14.0 0.00 0.00 0.00 29 1013.0
20260906194741 74 34 8.0 14.0 0.00 0.00 0.00 30 1013.0
20260906194013 75 51 8.0 14.0 0.00 0.00 0.00 31 1012.9
20260906193506 75 56 7.0 14.0 0.00 0.00 0.00 28 1012.9
20260906193224 74 40 8.0 16.0 0.00 0.00 0.00 32 1012.9
20260906192455 74 65 10.0 16.0 0.00 0.00 0.00 29 1013.0
20260906191948 74 98 9.0 16.0 0.00 0.00 0.00 30 1013.0
20260906191706 75 36 9.0 19.0 0.00 0.00 0.00 30 1013.0
20260906191158 75 39 9.0 19.0 0.00 0.00 0.00 31 1013.0
20260906190430 75 29 8.0 18.0 0.00 0.00 0.00 31 1013.0
20260906185926 75 52 7.0 14.0 0.00 0.00 0.00 29 1012.9
20260906185419 75 51 5.0 12.0 0.00 0.00 0.00 30 1012.9
20260906184913 75 25 5.0 11.0 0.00 0.00 0.00 28 1013.0
20260906184407 75 61 6.0 13.0 0.00 0.00 0.00 29 1012.9
20260906183901 75 72 6.0 13.0 0.00 0.00 0.00 31 1013.0
20260906183618 75 57 6.0 13.0 0.00 0.00 0.00 28 1013.0
20260906182849 75 44 7.0 18.0 0.00 0.00 0.00 29 1013.0
20260906182343 75 69 9.0 20.0 0.00 0.00 0.00 29 1013.0
20260906181836 75 76 8.0 20.0 0.00 0.00 0.00 29 1013.1
20260906181331 75 51 7.0 18.0 0.00 0.00 0.00 27 1013.1
20260906180825 75 38 8.0 18.0 0.00 0.00 0.00 28 1013.1
20260906180319 75 52 6.0 15.0 0.00 0.00 0.00 26 1013.2
20260906175818 75 54 5.0 12.0 0.00 0.00 0.00 25 1013.1
20260906175317 75 45 5.0 12.0 0.00 0.00 0.00 25 1013.1
20260906174815 75 89 6.0 14.0 0.00 0.00 0.00 25 1013.0
20260906174537 75 49 7.0 14.0 0.00 0.00 0.00 23 1013.1
20260906173815 75 71 5.0 12.0 0.00 0.00 0.00 19 1013.2
20260906173313 74 43 6.0 13.0 0.00 0.00 0.00 17 1013.2
20260906173034 74 66 7.0 15.0 0.00 0.00 0.00 13 1013.3
20260906172537 74 58 9.0 19.0 0.00 0.00 0.00 16 1013.3
20260906171811 74 74 10.0 19.0 0.00 0.00 0.00 22 1013.3
20260906171311 74 61 8.0 16.0 0.00 0.00 0.00 12 1013.3
20260906170811 74 61 7.0 14.0 0.00 0.00 0.00 11 1013.4
20260906170309 74 55 5.0 14.0 0.00 0.00 0.00 10 1013.4
20260906165810 74 27 4.0 14.0 0.00 0.00 0.00 4 1013.5
20260906165309 74 67 5.0 14.0 0.00 0.00 0.00 1 1013.4
20260906164809 74 11 7.0 14.0 0.00 0.00 0.00 3 1013.5
20260906164309 74 44 8.0 18.0 0.00 0.00 0.00 1 1013.4
20260906163809 73 72 8.0 18.0 0.00 0.00 0.00 1 1013.4
20260906163309 73 62 6.0 18.0 0.00 0.00 0.00 1 1013.4
20260906162803 72 69 7.0 18.0 0.00 0.00 0.00 1 1013.5
20260906162258 72 48 8.0 16.0 0.00 0.00 0.00 1 1013.5
20260906161751 72 87 7.0 15.0 0.00 0.00 0.00 1 1013.5
20260906161245 72 84 7.0 15.0 0.00 0.00 0.00 1 1013.6
20260906160739 72 51 6.0 12.0 0.00 0.00 0.00 1 1013.7
20260906160232 72 42 7.0 16.0 0.00 0.00 0.00 1 1013.7
20260906155734 72 65 8.0 16.0 0.00 0.00 0.00 1 1013.8
20260906155457 71 37 7.0 14.0 0.00 0.00 0.00 1 1013.8
20260906154731 71 57 7.0 16.0 0.00 0.00 0.00 1 1013.7
20260906154711 71 59 7.0 16.0 0.00 0.00 0.00 1 1013.8
20260906153729 71 65 6.0 14.0 0.00 0.00 0.00 1 1013.8
20260906153229 71 40 8.0 18.0 0.00 0.00 0.00 1 1013.8
20260906152729 71 60 7.0 18.0 0.00 0.00 0.00 1 1013.7
20260906152449 72 59 7.0 14.0 0.00 0.00 0.00 1 1013.7
20260906151954 71 74 10.0 16.0 0.00 0.00 0.00 1 1013.8
20260906151228 71 37 9.0 16.0 0.00 0.00 0.00 1 1013.9
20260906150947 70 66 8.0 14.0 0.00 0.00 0.00 1 1013.8
20260906150229 70 56 7.0 14.0 0.00 0.00 0.00 1 1013.9
20260906145729 70 91 4.0 11.0 0.00 0.00 0.00 1 1013.9
20260906145227 71 122 4.0 11.0 0.00 0.00 0.00 1 1013.9
20260906144953 70 65 4.0 11.0 0.00 0.00 0.00 1 1013.9
20260906144227 70 72 4.0 12.0 0.00 0.00 0.00 1 1013.9
20260906143721 70 62 5.0 12.0 0.00 0.00 0.00 1 1013.8
20260906143222 70 71 4.0 9.0 0.00 0.00 0.00 1 1013.8
20260906142721 68 65 2.0 8.0 0.00 0.00 0.00 1 1013.7
20260906142220 69 111 3.0 10.0 0.00 0.00 0.00 1 1013.6
20260906141721 69 44 5.0 10.0 0.00 0.00 0.00 1 1013.5
20260906141221 69 53 6.0 10.0 0.00 0.00 0.00 1 1013.6
20260906140719 69 69 5.0 11.0 0.00 0.00 0.00 1 1013.5
20260906140219 69 84 6.0 11.0 0.00 0.00 0.00 1 1013.5
20260906135939 69 52 6.0 11.0 0.00 0.00 0.00 1 1013.5
20260906135219 69 65 7.0 12.0 0.00 0.00 0.00 1 1013.6
20260906134719 69 36 6.0 12.0 0.00 0.00 0.00 1 1013.5
20260906134219 69 36 6.0 13.0 0.00 0.00 0.00 1 1013.5
20260906133719 69 90 7.0 13.0 0.00 0.00 0.00 1 1013.5
20260906133220 68 41 7.0 12.0 0.00 0.00 0.00 1 1013.5
20260906132713 67 90 6.0 12.0 0.00 0.00 0.00 1 1013.5
20260906132208 67 56 4.0 8.0 0.00 0.00 0.00 1 1013.5
20260906131707 66 63 5.0 10.0 0.00 0.00 0.00 1 1013.5
20260906131207 66 59 6.0 11.0 0.00 0.00 0.00 1 1013.6
20260906131150 65 61 5.0 11.0 0.00 0.00 0.00 1 1013.5
20260906130207 65 59 3.0 6.0 0.00 0.00 0.00 1 1013.5
20260906125707 65 52 3.0 8.0 0.00 0.00 0.00 1 1013.5
20260906125207 65 53 4.0 10.0 0.00 0.00 0.00 1 1013.5
20260906124707 64 53 4.0 10.0 0.00 0.00 0.00 1 1013.5
20260906124204 64 63 2.0 6.0 0.00 0.00 0.00 1 1013.5
20260906123922 64 62 2.0 6.0 0.00 0.00 0.00 1 1013.4
20260906123200 63 59 0.0 6.0 0.00 0.00 0.00 1 1013.4
20260906122702 63 61 0.0 0.0 0.00 0.00 0.00 1 1013.4
20260906122201 62 61 0.0 0.0 0.00 0.00 0.00 1 1013.4
20260906121701 62 61 0.0 0.0 0.00 0.00 0.00 1 1013.5
20260906121201 62 61 0.0 0.0 0.00 0.00 0.00 1 1013.5
20260906120701 62 61 0.0 0.0 0.00 0.00 0.00 1 1013.4
20260906120200 61 62 0.0 0.0 0.00 0.00 0.00 1 1013.5
20260906115701 61 67 0.0 0.0 0.00 0.00 0.00 1 1013.4
20260906115201 61 63 0.0 0.0 0.00 0.00 0.00 1 1013.4
20260906114657 61 65 0.0 0.0 0.00 0.00 0.00 1 1013.3
20260906114157 61 61 0.0 0.0 0.00 0.00 0.00 1 1013.2
20260906113657 60 61 0.0 0.0 0.00 0.00 0.00 1 1013.1
20260906113156 60 61 0.0 0.0 0.00 0.00 0.00 1 1013.1
20260906112658 60 61 0.0 0.0 0.00 0.00 0.00 1 1013.0
20260906112157 60 61 0.0 0.0 0.00 0.00 0.00 1 1013.0
20260906111657 60 61 0.0 0.0 0.00 0.00 0.00 1 1013.0
20260906111157 60 61 0.0 0.0 0.00 0.00 0.00 1 1013.0
20260906110656 60 61 0.0 0.0 0.00 0.00 0.00 1 1012.8
20260906110156 60 61 0.0 0.0 0.00 0.00 0.00 1 1012.7
20260906105657 60 61 0.0 0.0 0.00 0.00 0.00 1 1012.6
20260906105422 60 61 0.0 0.0 0.00 0.00 0.00 1 1012.6
20260906104656 60 61 0.0 0.0 0.00 0.00 0.00 1 1012.5
20260906104156 60 61 0.0 0.0 0.00 0.00 0.00 1 1012.5
20260906103657 60 61 0.0 0.0 0.00 0.00 0.00 1 1012.4
20260906103155 60 61 0.0 0.0 0.00 0.00 0.00 1 1012.2
20260906102655 60 61 0.0 0.0 0.00 0.00 0.00 1 1012.1
20260906102413 60 61 0.0 0.0 0.00 0.00 0.00 1 1012.1
20260906101651 60 61 0.0 0.0 0.00 0.00 0.00 1 1012.1
20260906101145 60 61 0.0 0.0 0.00 0.00 0.00 1 1012.0
20260906100645 60 61 0.0 0.0 0.00 0.00 0.00 1 1011.9
20260906100142 60 61 0.0 0.0 0.00 0.00 0.00 1 1011.8
20260906095644 60 61 0.0 0.0 0.00 0.00 0.00 1 1011.8
20260906095143 60 61 0.0 0.0 0.00 0.00 0.00 1 1011.7
20260906094641 61 61 0.0 0.0 0.00 0.00 0.00 1 1011.7
20260906094139 61 61 0.0 0.0 0.00 0.00 0.00 1 1011.7
20260906093639 61 61 0.0 0.0 0.00 0.00 0.00 1 1011.7
20260906093357 61 61 0.0 0.0 0.00 0.00 0.00 1 1011.7
20260906092638 61 61 0.0 0.0 0.00 0.00 0.00 1 1011.7
20260906092136 61 61 0.0 1.0 0.00 0.00 0.00 1 1011.5
20260906091634 61 61 0.0 2.0 0.00 0.00 0.00 1 1011.4
20260906091134 62 61 1.0 5.0 0.00 0.00 0.00 1 1011.4
20260906090632 62 61 2.0 5.0 0.00 0.00 0.00 1 1011.4
20260906090128 62 61 3.0 5.0 0.00 0.00 0.00 1 1011.4
20260906085629 62 61 3.0 6.0 0.00 0.00 0.00 1 1011.4
20260906085127 62 60 4.0 7.0 0.00 0.00 0.00 1 1011.4
20260906084847 62 59 5.0 7.0 0.00 0.00 0.00 1 1011.4
20260906084120 62 58 4.0 7.0 0.00 0.00 0.00 1 1011.4
20260906083614 62 62 3.0 7.0 0.00 0.00 0.00 1 1011.2
20260906083108 62 65 1.0 7.0 0.00 0.00 0.00 1 1011.3
20260906082601 62 68 0.0 0.0 0.00 0.00 0.00 1 1011.3
20260906082056 62 69 0.0 0.0 0.00 0.00 0.00 1 1011.1
20260906081552 62 69 0.0 1.0 0.00 0.00 0.00 1 1011.1
20260906081052 62 69 0.0 1.0 0.00 0.00 0.00 1 1011.0
20260906080552 62 69 0.0 1.0 0.00 0.00 0.00 1 1011.0
20260906080052 62 69 0.0 0.0 0.00 0.00 0.00 1 1011.1
20260906075554 62 69 0.0 0.0 0.00 0.00 0.00 1 1011.2
20260906075052 62 69 0.0 0.0 0.00 0.00 0.00 1 1011.2
20260906074552 63 69 0.0 0.0 0.00 0.00 0.00 1 1011.2
20260906074309 63 69 0.0 0.0 0.00 0.00 0.00 1 1011.3
20260906073550 63 69 0.0 0.0 0.00 0.00 0.00 1 1011.2
20260906073050 63 69 0.0 1.0 0.00 0.00 0.00 1 1011.1
20260906073033 63 69 0.0 1.0 0.00 0.00 0.00 1 1011.1
20260906072048 64 69 1.0 2.0 0.00 0.00 0.00 1 1011.0
20260906071548 64 69 1.0 2.0 0.00 0.00 0.00 1 1011.0
20260906071046 64 69 0.0 2.0 0.00 0.00 0.00 1 1010.9
20260906070546 64 69 0.0 1.0 0.00 0.00 0.00 1 1011.0
20260906070046 64 69 0.0 2.0 0.00 0.00 0.00 1 1010.9
20260906065805 64 69 0.0 2.0 0.00 0.00 0.00 1 1010.9
20260906065042 65 69 0.0 2.0 0.00 0.00 0.00 1 1011.0
20260906064541 65 69 0.0 0.0 0.00 0.00 0.00 1 1011.0
20260906064036 65 69 0.0 0.0 0.00 0.00 0.00 1 1011.0
20260906063530 65 69 0.0 2.0 0.00 0.00 0.00 1 1011.0
20260906063023 65 69 2.0 5.0 0.00 0.00 0.00 1 1011.0
20260906062517 65 69 2.0 6.0 0.00 0.00 0.00 1 1011.0
20260906062236 65 69 1.0 6.0 0.00 0.00 0.00 1 1011.0
20260906061506 65 72 0.0 0.0 0.00 0.00 0.00 1 1010.9
20260906061001 65 72 0.0 0.0 0.00 0.00 0.00 1 1010.9
20260906060454 65 72 0.0 0.0 0.00 0.00 0.00 1 1011.0
20260906055948 65 72 0.0 0.0 0.00 0.00 0.00 1 1011.0
20260906055443 65 72 0.0 0.0 0.00 0.00 0.00 1 1011.1
20260906054936 65 73 0.0 4.0 0.00 0.00 0.00 1 1011.1
20260906054430 65 72 2.0 5.0 0.00 0.00 0.00 1 1011.2
20260906053924 66 72 2.0 5.0 0.00 0.00 0.00 1 1011.3
20260906053418 66 71 2.0 6.0 0.00 0.00 0.00 1 1011.2
20260906052912 66 71 2.0 6.0 0.00 0.00 0.00 1 1011.2
20260906052405 66 70 3.0 5.0 0.00 0.00 0.00 1 1011.1
20260906051900 66 69 3.0 6.0 0.00 0.00 0.00 1 1011.1
20260906051354 66 69 3.0 7.0 0.00 0.00 0.00 1 1011.2
20260906050848 66 69 3.0 7.0 0.00 0.00 0.00 1 1011.2
20260906050342 66 63 3.0 6.0 0.00 0.00 0.00 1 1011.1
20260906045836 66 63 3.0 6.0 0.00 0.00 0.00 1 1011.1
20260906045330 66 61 4.0 6.0 0.00 0.00 0.00 1 1011.2
20260906044825 66 59 5.0 9.0 0.00 0.00 0.00 1 1011.2
20260906044318 66 58 5.0 9.0 0.00 0.00 0.00 1 1011.1
20260906043812 66 60 5.0 9.0 0.00 0.00 0.00 1 1011.1
20260906043306 66 64 5.0 8.0 0.00 0.00 0.00 1 1011.1
20260906042800 66 57 5.0 8.0 0.00 0.00 0.00 1 1011.1
20260906042254 66 57 4.0 6.0 0.00 0.00 0.00 1 1011.1
20260906041749 66 57 3.0 7.0 0.00 0.00 0.00 1 1011.2
20260906041242 66 57 3.0 8.0 0.00 0.00 0.00 1 1011.1
20260906040736 65 51 4.0 8.0 0.00 0.00 0.00 1 1011.0
20260906040230 65 63 2.0 10.0 0.00 0.00 0.00 1 1010.9
20260906035724 64 58 1.0 10.0 0.00 0.00 0.00 1 1010.9
20260906035219 64 60 0.0 5.0 0.00 0.00 0.00 1 1010.9
20260906034712 63 49 0.0 2.0 0.00 0.00 0.00 1 1011.0
20260906034206 63 49 0.0 2.0 0.00 0.00 0.00 1 1011.0
20260906033700 62 49 0.0 1.0 0.00 0.00 0.00 1 1011.1
20260906033156 62 48 0.0 1.0 0.00 0.00 0.00 1 1011.1
20260906032648 62 48 0.0 1.0 0.00 0.00 0.00 1 1011.0
20260906032142 62 48 0.0 0.0 0.00 0.00 0.00 1 1011.0
20260906031636 62 48 0.0 0.0 0.00 0.00 0.00 1 1010.9
20260906031130 62 48 0.0 0.0 0.00 0.00 0.00 1 1010.9
20260906030624 62 48 0.0 0.0 0.00 0.00 0.00 1 1010.8
20260906030117 62 48 0.0 0.0 0.00 0.00 0.00 1 1010.8
20260906025612 62 48 0.0 0.0 0.00 0.00 0.00 1 1010.8
20260906025107 62 48 0.0 0.0 0.00 0.00 0.00 1 1010.8
20260906024600 62 48 0.0 0.0 0.00 0.00 0.00 1 1010.8
20260906024054 63 48 0.0 0.0 0.00 0.00 0.00 1 1010.8
20260906023548 63 48 0.0 0.0 0.00 0.00 0.00 1 1010.8
20260906023042 63 48 0.0 0.0 0.00 0.00 0.00 1 1010.7
20260906022536 63 48 0.0 0.0 0.00 0.00 0.00 1 1010.8
20260906022031 63 48 0.0 0.0 0.00 0.00 0.00 1 1010.9
20260906021524 63 48 0.0 0.0 0.00 0.00 0.00 1 1010.9
20260906021018 64 48 0.0 0.0 0.00 0.00 0.00 1 1010.8
20260906020512 64 48 0.0 0.0 0.00 0.00 0.00 1 1010.7
20260906020006 64 48 0.0 0.0 0.00 0.00 0.00 1 1010.7
20260906015500 64 48 0.0 0.0 0.00 0.00 0.00 1 1010.7
20260906015216 65 48 0.0 0.0 0.00 0.00 0.00 1 1010.6
20260906014448 65 48 0.0 0.0 0.00 0.00 0.00 1 1010.7
20260906014205 65 48 0.0 0.0 0.00 0.00 0.00 1 1010.5
20260906013435 65 48 0.0 0.0 0.00 0.00 0.00 1 1010.5
20260906012930 65 48 0.0 0.0 0.00 0.00 0.00 1 1010.5
20260906012424 66 48 0.0 0.0 0.00 0.00 0.00 1 1010.5
20260906012402 66 48 0.0 0.0 0.00 0.00 0.00 1 1010.5
20260906011420 66 48 0.0 0.0 0.00 0.00 0.00 1 1010.5
20260906011143 66 48 0.0 0.0 0.00 0.00 0.00 1 1010.5
20260906010420 67 48 0.0 0.0 0.00 0.00 0.00 1 1010.4
20260906005920 67 48 0.0 0.0 0.00 0.00 0.00 1 1010.3
20260906005418 67 48 0.0 0.0 0.00 0.00 0.00 1 1010.4
20260906004918 67 48 0.0 0.0 0.00 0.00 0.00 1 1010.3
20260906004646 67 48 0.0 0.0 0.00 0.00 0.00 1 1010.3
20260906003916 67 48 0.0 0.0 0.00 0.00 0.00 1 1010.2
20260906003416 68 48 0.0 0.0 0.00 0.00 0.00 1 1010.1
20260906002914 68 48 0.0 1.0 0.00 0.00 0.00 1 1010.0
20260906002413 68 48 0.0 1.0 0.00 0.00 0.00 1 1009.9
20260906002134 68 48 0.0 0.0 0.00 0.00 0.00 1 1009.9
20260906001411 69 48 0.0 0.0 0.00 0.00 0.00 1 1009.9
20260906001129 69 48 0.0 0.0 0.00 0.00 0.00 1 1009.9
20260906000411 69 48 0.0 0.0 0.00 0.00 0.00 1 1009.9
20260905235906 69 48 0.0 0.0 0.00 0.00 0.00 1 1009.9
20260905235406 69 48 0.0 0.0 0.00 0.00 0.00 1 1009.9
20260905234906 69 48 0.0 0.0 0.00 0.00 0.00 1 1009.8
20260905234406 69 48 0.0 0.0 0.00 0.00 0.00 1 1009.8
20260905234131 69 48 0.0 1.0 0.00 0.00 0.00 1 1009.7
20260905233406 69 48 0.0 1.0 0.00 0.00 0.00 1 1009.6
20260905232906 69 48 0.0 0.0 0.00 0.00 0.00 1 1009.7
20260905232404 69 48 0.0 0.0 0.00 0.00 0.00 1 1009.6
20260905231904 70 48 0.0 0.0 0.00 0.00 0.00 1 1009.5
20260905231405 70 48 0.0 0.0 0.00 0.00 0.00 1 1009.5
20260905230903 71 48 0.0 2.0 0.00 0.00 0.00 1 1009.5
20260905230855 71 48 2.0 7.0 0.00 0.00 0.00 1 1009.4
20260905225902 71 48 3.0 8.0 0.00 0.00 0.00 1 1009.4
20260905225401 71 56 3.0 8.0 0.00 0.00 0.00 2 1009.3
20260905224903 72 53 4.0 11.0 0.00 0.00 0.00 3 1009.3
20260905224402 72 55 3.0 11.0 0.00 0.00 0.00 8 1009.3
20260905223902 73 53 4.0 12.0 0.00 0.00 0.00 8 1009.3
20260905223402 74 63 5.0 12.0 0.00 0.00 0.00 10 1009.3
20260905222902 74 68 5.0 9.0 0.00 0.00 0.00 8 1009.3
20260905222402 74 60 6.0 11.0 0.00 0.00 0.00 7 1009.3
20260905221902 74 74 4.0 11.0 0.00 0.00 0.00 5 1009.2
20260905221358 75 340 1.0 9.0 0.00 0.00 0.00 1 1009.1
20260905220857 75 58 0.0 4.0 0.00 0.00 0.00 1 1009.1
20260905220358 74 58 0.0 2.0 0.00 0.00 0.00 1 1009.1
20260905215858 73 58 0.0 2.0 0.00 0.00 0.00 1 1008.9
20260905215617 73 58 1.0 4.0 0.00 0.00 0.00 1 1009.1
20260905215119 73 58 3.0 9.0 0.00 0.00 0.00 1 1009.1
20260905214624 73 56 4.0 9.0 0.00 0.00 0.00 1 1009.0
20260905213858 73 66 3.0 8.0 0.00 0.00 0.00 1 1008.9
20260905213358 74 55 3.0 8.0 0.00 0.00 0.00 1 1008.9
20260905213122 74 68 3.0 8.0 0.00 0.00 0.00 1 1008.8
20260905212358 74 99 3.0 9.0 0.00 0.00 0.00 1 1008.8
20260905211858 74 61 2.0 9.0 0.00 0.00 0.00 1 1008.8
20260905211358 74 97 0.0 4.0 0.00 0.00 0.00 1 1008.8
20260905210858 74 97 1.0 7.0 0.00 0.00 0.00 1 1008.6
20260905210358 74 92 1.0 7.0 0.00 0.00 0.00 1 1008.6
20260905205857 75 52 3.0 7.0 0.00 0.00 0.00 2 1008.6
20260905205358 75 52 3.0 7.0 0.00 0.00 0.00 6 1008.6
20260905204859 75 63 1.0 5.0 0.00 0.00 0.00 1 1008.6
20260905204357 75 63 1.0 6.0 0.00 0.00 0.00 3 1008.5
20260905204114 74 58 1.0 8.0 0.00 0.00 0.00 3 1008.4
20260905203357 74 57 3.0 9.0 0.00 0.00 0.00 5 1008.4
20260905202857 74 52 5.0 9.0 0.00 0.00 0.00 8 1008.4
20260905202357 75 45 5.0 9.0 0.00 0.00 0.00 13 1008.4
20260905201858 75 53 6.0 11.0 0.00 0.00 0.00 14 1008.4